Weather in Ocher

Russia / Perm Krai     57°53′12″N   54°42′56″E
temp.,
°C
wind,
m/s
gust,
m/s
humid.,
%
clouds,
%
prec.,
mm/h
press.,
hPa
HPBL,
m
26 february, fri
fri2623:00−25sse23984 0.0 102762
02:00−27sse23970 0.0 102643
05:00−28se23980 0.0 102646
08:00−29se34980 0.0 102585
11:00−24sse36940 0.0 1024252
14:00−20sse469289 0.0 1023391
17:00−18sse489195 0.0 1021519
20:00−19sse41195100 0.0 1019421
27 february, sat
sat2723:00−20sse4129696 0.0 1016380
02:00−18se61493100 0.0 1013551
05:00−17se61392100 0.0 1011608
08:00−16ese51389100 0.0 1008587
11:00−16ese51093100 0.3 1007484
14:00−14e5891100 0.5 1006540
17:00−14e51092100 0.7 1006541
20:00−15e51193100 0.3 1007533
28 february, sun
sun2823:00−17e51093100 0.4 1008482
02:00−19ene4995100 0.1 1008370
05:00−21ne4897100 0.1 1009266
08:00−22ne489796 0.0 1009256
11:00−19ne479398 0.1 1010422
14:00−16ne4789100 0.0 1010579
17:00−14ne4890100 0.1 1012628
20:00−16nne4996100 0.1 1013302
1 march, mon
mon123:00−18nne3599100 0.1 1016116
02:00−22ne239647 0.0 101745
05:00−24nne229423 0.0 101925
08:00−24nne12950 0.0 102020
11:00−18nnw12910 0.0 1021200
14:00−13nw228479 0.0 1021378
17:00−11wnw138482 0.0 1020436
20:00−16wsw239546 0.0 102024
2 march, tue
tue223:00−18sw339623 0.0 102059
02:00−18sw38960 0.0 1018190
05:00−18sw4109321 0.0 1016246
08:00−18ssw6129491 0.0 1013288
11:00−16ssw6129496 0.1 1011360
14:00−12ssw61192100 0.6 1009501
17:00−11ssw51193100 1.4 1008539
20:00−11ssw51094100 0.6 1007452